Temperature
12 12 12 12 12 12 12 12 12 12 12 11 11 11 11 11 11 11 11 11 11 11 10 10 10 10 9 9 9 9 9 9 9 9 9 9 9 9 9 9 8 8 8
12 12 12 11 11 12 12 12 11 11 11 11 11 11 11 11 11 11 10 11 10 10 10 10 10 9 9 9 9 9 9 9 9 9 9 9 8 8 9 8 8 8 8
12 11 11 11 11 11 11 11 11 11 11 11 11 11 11 10 10 10 10 10 10 10 10 10 9 9 9 9 8 8 8 8 8 8 8 8 8 8 8 8 8 8 8
11 11 11 11 11 11 11 11 11 11 11 11 11 11 10 10 10 10 10 10 10 10 9 9 9 9 9 8 8 8 8 8 8 8 8 8 8 8 8 8 8 7 7
11 11 11 11 11 11 11 11 10 10 10 10 10 10 10 10 10 10 10 10 9 9 9 9 9 9 8 8 8 8 8 8 8 8 8 8 8 8 7 7 7 7 7
10 10 11 11 11 10 10 10 10 10 10 10 10 10 10 10 10 9 9 9 9 9 9 9 9 8 8 8 8 8 8 8 7 7 7 7 7 7 7 7 7 7 7
10 10 10 10 10 10 10 10 10 10 10 9 9 9 9 9 9 9 9 9 9 8 8 8 8 8 8 8 8 8 7 7 7 7 7 7 7 7 7 7 7 6 6
10 10 10 10 10 10 10 10 10 9 9 9 9 8 8 8 9 9 9 8 8 8 8 8 8 8 8 8 8 7 7 7 7 7 7 7 7 7 6 6 6 6 6
9 9 9 9 9 9 9 9 9 9 9 9 8 8 8 8 8 8 8 8 8 7 7 7 7 7 7 7 7 7 7 6 6 6 6 6 6 6 6 6 6 6 5
9 9 9 9 9 9 9 9 9 9 9 8 8 8 7 7 7 7 7 7 7 7 7 7 7 7 6 6 7 6 6 6 6 6 6 6 6 6 6 5 5 5 5
8 8 8 8 8 8 8 8 8 8 8 8 8 7 7 7 7 6 6 6 6 6 6 6 6 6 6 6 6 6 6 6 6 5 5 5 5 5 5 5 5 5 5
8 8 8 8 8 8 8 8 8 7 7 7 7 7 7 6 6 6 6 6 6 6 6 6 6 6 6 5 5 5 5 5 5 5 5 5 5 5 5 5 5 5 4
7 7 7 7 7 7 7 7 7 7 7 7 7 7 6 6 6 6 5 5 5 5 5 5 5 5 5 5 5 5 5 5 5 5 5 5 5 5 5 5 4 4 4
7 7 7 7 7 7 7 7 7 6 6 6 6 6 6 6 5 5 5 5 4 4 4 5 5 5 5 4 4 4 4 4 4 4 4 4 4 4 4 4 4 4 4
6 6 6 6 6 6 6 6 6 6 6 6 6 6 5 5 5 5 5 4 4 3 3 4 4 4 4 4 4 4 4 4 4 4 4 4 4 4 4 3 3 3 3
6 5 6 6 6 6 6 6 6 5 5 5 5 5 5 5 4 4 4 4 4 3 3 3 3 4 4 3 3 3 3 4 4 4 4 4 3 3 3 3 3 3 3
5 5 5 5 5 5 5 5 5 5 5 5 4 4 4 4 4 4 4 3 3 3 3 3 3 3 3 3 3 3 3 3 3 3 3 3 3 3 3 3 2 2 2
5 5 5 5 5 5 5 4 4 4 4 4 4 4 4 4 3 3 3 3 3 3 2 2 2 3 3 3 3 3 3 3 3 3 3 3 2 2 2 2 2 2 2
4 4 4 4 4 4 4 4 4 4 3 4 3 3 3 3 3 3 3 3 3 3 2 2 2 2 2 2 2 3 2 3 3 3 2 2 2 2 2 2 2 2 2
3 3 3 3 3 3 3 3 3 3 3 3 3 3 3 3 3 2 2 2 2 2 2 2 2 2 2 2 2 2 2 2 2 2 2 2 2 2 2 2 1 1 1
3 3 3 3 2 3 3 2 2 2 2 2 2 2 2 2 2 2 2 2 2 2 2 1 1 1 1 1 1 2 2 2 2 2 2 2 1 1 1 1 1 1 1
2 2 2 2 2 2 2 2 2 2 2 2 2 2 2 2 1 1 1 1 1 1 1 1 1 1 1 1 1 1 1 1 1 1 1 1 1 1 1 1 1 0 0
1 1 1 1 1 1 1 2 1 2 1 1 1 1 1 1 1 1 1 1 1 1 0 0 0 0 0 0 0 0 0 0 0 1 0 0 1 0 0 0 0 0 0
1 1 1 1 1 1 1 1 1 1 1 1 1 1 1 1 1 0 0 1 1 0 0 0 0 0 -0 0 0 -0 -0 -0 0 0 0 -0 -0 -0 0 0 0 -0 -0
0 0 0 0 0 0 0 1 1 1 1 0 0 0 0 0 -0 -0 0 0 0 0 0 -0 -0 -0 -0 -0 -0 -0 -0 -0 -0 -0 -0 -1 -1 -1 -0 -0 -0 -1 -1
-1 -1 -1 -0 -0 -0 -0 -0 0 0 0 -0 -0 -0 -0 -1 -1 -1 -0 -0 -0 -0 -0 -0 -0 -0 -0 -0 -0 -0 -1 -1 -1 -1 -1 -1 -1 -1 -1 -1 -1 -1 -1
Wind_Speed
3 3 3 3 4 4 3 3 3 2 2 2 2 2 1 2 2 3 4 2 1 1 3 4 4 4 4 5 5 6 5 5 6 6 7 8 8 9 9 10 10 11 11
3 2 2 2 2 3 3 3 3 2 1 1 1 1 1 1 2 3 4 3 2 2 3 4 4 5 5 5 6 7 6 6 6 7 7 8 9 9 10 10 10 11 12
4 3 2 2 2 2 2 2 2 2 1 1 1 1 1 1 2 2 2 3 2 2 3 4 4 6 6 6 6 7 8 7 7 8 8 9 9 10 11 11 11 11 12
4 3 2 2 2 2 1 1 2 1 1 1 1 1 1 1 1 2 2 3 3 2 2 3 4 6 7 7 7 8 8 8 8 9 9 9 10 11 11 11 11 12 13
4 3 3 2 2 1 1 1 2 2 1 1 1 1 1 2 2 2 2 3 3 3 3 3 4 5 6 7 7 8 9 9 9 10 10 10 10 11 11 12 12 13 13
4 3 2 2 2 2 1 1 2 2 1 1 1 2 2 2 2 2 3 3 3 3 3 3 3 4 6 7 8 9 9 10 10 10 11 11 11 11 12 12 13 13 13
3 3 2 2 2 2 2 2 3 3 1 1 1 1 2 3 3 2 2 2 3 3 4 4 3 3 4 7 8 9 10 10 11 11 11 12 12 12 12 12 13 13 14
2 2 3 3 2 2 2 2 3 2 1 1 1 0 1 2 2 3 2 3 3 2 3 4 4 4 3 4 6 8 9 10 11 11 12 12 12 12 12 12 13 13 14
2 2 3 3 3 3 3 3 3 4 3 2 1 2 1 2 2 2 3 3 2 2 2 3 3 3 4 4 4 6 8 10 11 12 12 12 12 12 12 13 13 13 14
2 2 2 3 3 3 2 2 2 2 3 3 2 1 2 1 1 2 2 2 3 3 3 3 3 3 4 3 4 6 8 9 11 12 12 12 12 13 12 13 13 14 14
2 2 2 2 3 2 3 2 2 2 2 2 2 1 2 2 2 2 4 3 3 3 3 3 2 2 3 3 4 5 8 9 11 12 12 12 12 13 12 12 13 14 14
2 2 2 2 2 2 3 3 2 3 2 2 1 1 2 2 2 2 3 4 4 4 4 3 2 2 3 3 5 7 8 10 10 11 11 12 12 12 13 12 13 14 14
2 3 3 2 2 2 2 2 2 3 3 3 2 2 2 2 1 2 2 3 4 4 3 3 2 2 3 3 5 7 9 10 10 10 11 11 11 11 12 12 13 13 14
3 3 3 3 3 3 3 3 2 3 3 3 3 2 1 2 2 2 2 2 3 4 4 4 3 2 3 4 6 8 8 10 10 10 10 10 10 11 11 12 12 13 14
3 3 3 3 3 3 3 3 3 3 3 3 3 2 2 2 1 1 2 2 2 4 5 4 2 3 4 4 7 7 8 9 9 9 9 9 10 10 10 11 12 12 13
3 3 3 3 3 3 3 3 3 3 3 3 2 2 2 2 1 1 2 2 2 3 5 3 3 4 4 5 7 7 8 9 9 9 9 9 9 9 9 10 11 11 12
3 3 3 3 3 3 3 3 3 4 4 3 3 3 3 2 1 1 1 2 3 3 5 5 3 4 4 5 6 6 7 7 7 9 10 9 9 9 8 9 10 11 12
3 3 3 2 2 2 3 3 3 4 4 3 3 3 2 2 2 2 2 3 3 3 4 6 5 4 4 4 5 5 6 6 7 8 9 9 8 8 8 9 9 10 11
2 2 2 2 2 2 3 3 3 3 3 3 3 3 2 2 2 2 3 3 3 3 3 4 5 4 4 4 4 5 5 5 6 7 8 7 7 8 8 8 9 10 10
2 2 1 1 2 2 2 2 2 2 2 2 2 2 2 2 3 3 3 3 3 3 3 3 3 4 4 4 3 4 5 5 5 6 6 7 8 8 8 8 9 10 10
1 1 1 1 1 1 2 2 2 2 2 1 1 2 2 2 3 3 3 3 3 3 3 3 3 3 4 3 4 3 4 5 5 3 4 5 5 5 5 7 8 9 10
1 1 1 0 0 1 2 2 2 2 2 2 2 1 2 2 2 3 4 4 4 3 3 3 3 4 5 4 3 4 4 4 4 3 4 5 4 4 4 4 7 9 10
1 1 0 0 1 1 1 2 2 2 2 2 2 1 2 2 3 2 3 4 3 4 3 3 4 4 4 4 3 4 3 4 4 4 4 4 3 4 5 6 9 9 10
0 0 0 0 0 1 2 2 1 1 1 2 2 2 2 2 3 2 2 2 2 3 3 2 2 3 3 2 2 3 4 4 3 3 2 2 3 4 5 6 8 9 9
0 0 0 0 0 1 2 1 0 1 1 1 1 1 2 2 3 2 1 2 2 3 4 4 5 4 4 4 4 2 2 2 3 3 2 1 2 4 4 3 6 9 10
1 1 1 0 0 1 2 2 0 1 1 1 1 1 2 2 3 3 2 2 3 3 3 4 4 5 3 3 4 2 1 2 2 2 2 2 2 3 3 2 4 6 7
Wind_Direction
147 144 148 156 160 164 179 186 173 171 164 168 168 170 143 122 129 130 136 143 144 322 315 317 318 314 315 322 326 325 324 323 323 328 332 331 331 331 331 330 328 328 328
140 144 148 158 173 181 189 185 172 165 166 163 185 170 152 149 152 145 148 163 195 258 296 302 306 310 306 309 312 318 316 318 319 321 323 324 324 325 325 323 323 325 325
146 148 156 161 175 179 180 173 147 140 171 193 215 214 171 174 167 157 168 164 175 230 278 293 300 302 303 302 307 311 316 310 314 315 316 319 320 319 320 320 321 321 321
147 145 157 169 177 162 143 169 148 144 181 205 224 242 215 188 188 177 183 181 181 194 240 276 297 303 299 296 301 307 307 307 308 312 312 312 314 314 315 316 317 317 317
147 143 162 164 152 138 135 179 145 149 169 240 245 245 238 225 219 206 197 204 197 187 202 248 275 295 306 301 303 309 306 309 308 309 310 309 309 310 312 312 314 316 316
155 145 150 150 139 145 171 170 158 148 156 203 264 275 256 244 230 219 215 203 201 207 218 231 247 273 284 293 298 303 306 308 311 312 315 314 309 309 310 311 313 314 316
150 150 147 149 154 178 194 182 159 149 153 120 89 310 281 249 226 220 214 209 213 215 223 233 241 252 266 278 289 297 302 303 308 307 311 314 314 311 309 311 312 313 315
142 154 161 177 179 190 190 186 161 156 171 153 148 189 288 295 261 242 234 228 230 217 232 238 242 249 256 264 276 288 296 301 305 307 308 310 311 314 313 310 311 312 314
177 175 184 177 175 176 191 197 181 169 187 204 177 161 184 239 288 250 233 229 235 247 249 249 250 255 259 266 267 282 290 298 302 307 307 309 311 311 315 314 312 313 314
189 190 194 187 179 183 187 204 213 193 175 193 216 229 224 205 225 288 282 251 255 259 256 264 261 259 259 258 263 278 287 295 297 302 303 305 309 311 314 316 313 313 313
187 196 186 180 184 185 193 195 195 193 191 192 193 209 241 258 250 246 273 283 284 262 257 259 251 259 260 260 266 281 286 290 293 297 300 304 308 312 311 317 317 314 314
190 193 190 176 184 188 195 199 194 188 191 193 203 201 195 207 236 243 257 269 276 274 271 266 250 261 266 269 276 283 285 289 292 296 301 303 306 313 312 314 318 317 315
202 204 201 190 186 197 191 188 193 196 191 190 206 224 227 228 230 248 263 277 281 282 275 267 253 255 285 285 283 283 287 289 290 293 298 301 304 309 314 314 317 317 317
202 198 193 188 192 192 199 187 195 203 195 194 206 213 228 256 240 230 239 266 288 284 273 271 270 263 301 297 294 288 290 288 288 291 295 298 305 309 312 317 320 322 321
191 183 186 189 194 194 195 192 194 205 197 200 199 201 216 243 249 242 233 227 243 275 276 273 284 294 311 308 302 301 297 290 288 290 295 298 304 308 313 319 321 324 325
177 179 184 190 198 202 198 198 189 196 196 201 199 202 217 226 227 236 228 248 245 250 268 277 280 303 313 313 306 309 302 298 292 291 295 298 303 306 314 321 323 326 329
172 176 183 190 194 197 201 197 198 191 199 206 209 210 221 231 244 251 255 254 256 251 265 286 296 307 305 303 314 312 308 303 300 296 296 299 305 309 318 322 324 326 328
174 180 181 183 199 202 198 201 209 205 201 204 212 217 225 229 254 252 262 265 259 254 259 284 301 308 301 300 315 314 319 315 314 309 305 301 306 316 324 327 328 329 331
156 160 159 178 204 204 200 207 209 214 206 203 206 216 225 221 249 263 268 272 275 274 267 277 293 305 306 316 320 317 315 322 322 318 314 318 319 322 327 328 333 334 332
152 156 173 198 215 212 203 213 218 211 197 194 200 208 221 234 245 259 274 272 282 282 277 280 293 308 312 315 318 320 322 328 324 332 330 327 319 320 322 328 333 337 337
117 144 154 179 204 204 213 211 218 224 191 174 192 213 215 231 246 263 277 287 289 288 286 279 291 307 310 323 320 316 316 322 321 337 332 324 322 318 320 329 336 338 341
73 75 88 124 252 253 234 230 226 220 196 181 202 226 233 231 260 288 292 296 294 279 275 277 281 288 296 304 313 316 318 327 319 329 329 318 327 316 329 342 338 341 345
66 45 30 13 295 269 258 236 236 225 201 198 195 218 265 261 273 257 292 308 313 315 291 270 271 277 285 294 300 308 309 307 298 302 320 313 324 324 331 336 340 343 349
79 338 274 258 288 302 313 276 221 197 182 185 197 219 240 258 255 264 279 299 303 307 306 308 279 277 286 292 281 278 287 306 308 321 336 315 321 322 327 335 339 350 355
312 321 264 203 260 309 323 314 137 180 181 199 217 217 230 258 268 282 270 275 295 310 336 333 328 318 321 331 341 338 337 333 323 323 344 350 327 328 323 325 350 356 354
311 327 342 336 270 268 320 327 252 183 181 207 231 227 236 253 280 292 255 251 275 296 315 328 333 335 336 340 351 347 293 305 317 317 337 354 326 340 337 324 342 349 351
Height
1512 1513 1515 1516 1517 1518 1519 1520 1520 1521 1522 1522 1523 1523 1523 1523 1523 1522 1522 1521 1521 1520 1519 1518 1517 1517 1516 1515 1515 1514 1513 1512 1511 1510 1508 1507 1506 1504 1503 1501 1499 1498 1496
1509 1511 1512 1513 1515 1516 1517 1517 1518 1519 1519 1520 1521 1521 1521 1521 1521 1520 1520 1519 1518 1518 1517 1516 1515 1514 1514 1513 1512 1511 1510 1509 1508 1507 1506 1505 1503 1502 1500 1498 1497 1495 1493
1507 1508 1510 1511 1512 1514 1514 1515 1515 1516 1517 1517 1518 1518 1518 1518 1518 1518 1517 1517 1516 1515 1515 1514 1513 1512 1511 1510 1510 1509 1508 1507 1505 1504 1503 1502 1500 1499 1497 1495 1494 1492 1490
1505 1506 1508 1509 1510 1511 1512 1513 1512 1513 1514 1514 1515 1515 1515 1515 1515 1515 1515 1514 1513 1513 1512 1511 1510 1509 1509 1508 1507 1506 1505 1504 1503 1501 1500 1499 1497 1496 1494 1492 1490 1488 1486
1502 1503 1505 1506 1507 1508 1509 1510 1510 1511 1511 1512 1512 1512 1512 1512 1512 1512 1512 1511 1510 1510 1509 1508 1507 1506 1505 1505 1503 1502 1502 1500 1499 1498 1497 1495 1494 1492 1491 1489 1487 1485 1483
1499 1500 1501 1503 1504 1505 1506 1506 1507 1508 1509 1509 1509 1509 1509 1509 1509 1509 1508 1508 1507 1507 1506 1505 1504 1503 1502 1501 1500 1499 1498 1497 1495 1495 1493 1491 1490 1488 1487 1485 1483 1481 1479
1496 1497 1498 1499 1500 1501 1502 1503 1504 1504 1505 1506 1506 1505 1505 1506 1505 1505 1505 1504 1504 1503 1502 1501 1500 1499 1498 1498 1496 1495 1494 1493 1491 1491 1489 1488 1486 1484 1482 1481 1479 1477 1475
1493 1493 1494 1496 1497 1498 1499 1499 1500 1501 1502 1503 1503 1502 1502 1502 1501 1501 1501 1501 1500 1500 1499 1498 1497 1496 1494 1493 1492 1491 1490 1489 1488 1486 1485 1483 1481 1480 1478 1476 1475 1473 1471
1489 1490 1491 1493 1494 1495 1495 1496 1496 1497 1497 1499 1500 1501 1500 1498 1498 1497 1497 1497 1497 1496 1495 1494 1493 1492 1491 1489 1488 1486 1485 1484 1484 1482 1480 1479 1477 1475 1473 1472 1470 1468 1466
1485 1487 1488 1489 1490 1491 1492 1492 1493 1493 1494 1494 1496 1497 1498 1497 1496 1494 1493 1493 1493 1492 1491 1490 1489 1488 1486 1485 1483 1482 1480 1479 1479 1477 1476 1474 1473 1471 1468 1467 1465 1463 1461
1481 1483 1484 1485 1486 1487 1488 1489 1489 1490 1490 1490 1491 1492 1493 1493 1493 1492 1489 1488 1488 1488 1487 1486 1484 1483 1482 1480 1479 1477 1476 1474 1473 1472 1471 1469 1468 1466 1464 1462 1460 1458 1456
1477 1478 1480 1481 1481 1483 1484 1484 1485 1486 1486 1487 1487 1488 1488 1489 1488 1488 1486 1484 1483 1483 1483 1481 1480 1479 1477 1476 1474 1473 1471 1469 1468 1467 1466 1464 1463 1461 1459 1457 1455 1453 1451
1471 1473 1475 1476 1477 1479 1479 1480 1481 1482 1482 1483 1483 1483 1484 1484 1485 1485 1484 1482 1480 1479 1478 1477 1476 1474 1472 1471 1469 1467 1466 1464 1463 1462 1461 1459 1458 1456 1454 1452 1450 1448 1446
1467 1469 1471 1473 1474 1475 1476 1476 1477 1478 1478 1479 1479 1480 1480 1480 1480 1480 1480 1479 1477 1475 1474 1472 1471 1470 1468 1466 1464 1462 1460 1459 1458 1457 1456 1454 1453 1451 1449 1447 1445 1443 1441
1464 1466 1467 1469 1470 1471 1471 1472 1473 1473 1474 1475 1475 1476 1476 1476 1476 1476 1476 1476 1476 1473 1470 1468 1467 1465 1463 1461 1459 1457 1455 1454 1453 1452 1451 1449 1448 1446 1445 1443 1440 1438 1436
1460 1462 1463 1465 1466 1467 1468 1468 1469 1469 1470 1470 1471 1472 1472 1472 1472 1472 1471 1471 1471 1470 1467 1465 1463 1461 1460 1457 1456 1453 1451 1450 1449 1447 1446 1445 1443 1442 1440 1438 1436 1434 1432
1457 1458 1459 1461 1461 1463 1464 1464 1464 1465 1466 1467 1467 1468 1468 1468 1468 1468 1467 1467 1466 1465 1463 1460 1460 1458 1456 1454 1451 1449 1447 1446 1444 1443 1441 1440 1438 1437 1436 1434 1432 1430 1428
1453 1454 1455 1456 1457 1458 1459 1460 1460 1461 1462 1462 1463 1464 1464 1464 1464 1463 1463 1462 1461 1461 1459 1457 1455 1453 1452 1450 1448 1445 1443 1442 1440 1438 1437 1436 1434 1433 1432 1430 1428 1426 1424
1449 1450 1451 1452 1453 1454 1455 1456 1457 1457 1458 1459 1460 1460 1460 1460 1460 1459 1459 1458 1457 1457 1455 1454 1451 1450 1448 1446 1444 1442 1440 1438 1436 1435 1434 1432 1430 1429 1428 1426 1425 1423 1421
1445 1447 1447 1449 1450 1450 1451 1452 1453 1453 1454 1455 1456 1456 1456 1456 1456 1456 1455 1454 1454 1453 1451 1450 1448 1446 1444 1443 1441 1438 1436 1434 1433 1431 1430 1429 1427 1426 1424 1423 1421 1419 1417
1442 1444 1444 1445 1446 1446 1447 1448 1449 1450 1450 1450 1451 1452 1452 1452 1453 1452 1452 1451 1450 1449 1448 1446 1444 1443 1441 1439 1437 1435 1433 1432 1430 1428 1427 1425 1424 1422 1420 1419 1418 1416 1414
1439 1440 1441 1442 1442 1443 1443 1444 1445 1446 1446 1447 1447 1448 1449 1449 1448 1448 1448 1447 1447 1446 1444 1443 1441 1440 1438 1437 1435 1433 1431 1429 1426 1426 1424 1422 1421 1419 1418 1417 1415 1413 1412
1436 1437 1438 1439 1439 1439 1440 1441 1441 1442 1443 1443 1443 1444 1444 1445 1445 1444 1444 1444 1443 1442 1442 1440 1438 1437 1435 1434 1432 1430 1429 1428 1425 1424 1422 1419 1418 1416 1415 1414 1413 1411 1409
1434 1435 1436 1436 1436 1436 1437 1437 1437 1439 1439 1440 1440 1441 1441 1441 1441 1441 1440 1440 1439 1438 1437 1436 1435 1434 1432 1431 1430 1429 1427 1426 1424 1422 1421 1417 1415 1414 1412 1412 1411 1409 1407
1433 1433 1433 1433 1433 1433 1434 1434 1434 1435 1436 1436 1437 1437 1437 1437 1437 1437 1437 1436 1436 1435 1434 1433 1432 1431 1430 1428 1428 1426 1425 1423 1421 1419 1418 1416 1414 1412 1410 1409 1409 1407 1405
1430 1430 1430 1431 1431 1431 1431 1431 1432 1432 1432 1433 1433 1434 1434 1434 1434 1434 1433 1433 1432 1431 1430 1429 1428 1428 1427 1426 1425 1424 1423 1421 1419 1417 1416 1415 1413 1412 1409 1408 1407 1405 1403